| time (UTC) | temp F | wind direction | speed MPH | gust MPH | rain 1hr in | rain 24hr in | rain mn in | humidity % | barometer mb |
| 20260906073059 | 80 | 0 | 0.0 | 0.0 | 0.00 | 0.00 | 0.00 | 73 | 1012.5 |
| 20260906071602 | 80 | 0 | 0.0 | 0.0 | 0.00 | 0.00 | 0.00 | 73 | 1012.5 |
| 20260906070103 | 80 | 0 | 0.0 | 0.0 | 0.00 | 0.00 | 0.00 | 71 | 1012.5 |
| 20260906064600 | 81 | 0 | 0.0 | 1.0 | 0.00 | 0.00 | 0.00 | 70 | 1012.6 |
| 20260906063104 | 81 | 0 | 0.0 | 0.0 | 0.00 | 0.00 | 0.00 | 69 | 1012.6 |
| 20260906061604 | 81 | 0 | 0.0 | 0.0 | 0.00 | 0.00 | 0.00 | 67 | 1012.5 |
| 20260906054607 | 82 | 0 | 0.0 | 0.0 | 0.00 | 0.00 | 0.00 | 65 | 1012.5 |
| 20260906053103 | 82 | 0 | 0.0 | 0.0 | 0.00 | 0.00 | 0.00 | 66 | 1012.7 |
| 20260906051612 | 83 | 0 | 0.0 | 0.0 | 0.00 | 0.00 | 0.00 | 66 | 1012.8 |
| 20260906050104 | 83 | 0 | 0.0 | 0.0 | 0.00 | 0.00 | 0.00 | 64 | 1012.6 |
| 20260906044609 | 83 | 0 | 0.0 | 0.0 | 0.00 | 0.00 | 0.00 | 65 | 1012.5 |
| 20260906043100 | 84 | 0 | 0.0 | 0.0 | 0.00 | 0.00 | 0.00 | 64 | 1012.4 |
| 20260906041601 | 84 | 0 | 0.0 | 0.0 | 0.00 | 0.00 | 0.00 | 64 | 1012.4 |
| 20260906040139 | 85 | 0 | 0.0 | 0.0 | 0.00 | 0.00 | 0.00 | 64 | 1012.5 |
| 20260906034610 | 85 | 0 | 0.0 | 0.0 | 0.00 | 0.00 | 0.00 | 64 | 1012.5 |
| 20260906033106 | 85 | 0 | 0.0 | 0.0 | 0.00 | 0.00 | 0.00 | 64 | 1012.4 |
| 20260906031600 | 86 | 0 | 0.0 | 0.0 | 0.00 | 0.00 | 0.00 | 62 | 1012.3 |
| 20260906030104 | 86 | 0 | 0.0 | 0.0 | 0.00 | 0.00 | 0.00 | 60 | 1012.1 |
| 20260906024613 | 87 | 0 | 0.0 | 0.0 | 0.00 | 0.00 | 0.00 | 60 | 1012.1 |
| 20260906023104 | 88 | 0 | 0.0 | 0.0 | 0.00 | 0.00 | 0.00 | 58 | 1011.8 |
| 20260906021603 | 89 | 0 | 0.0 | 0.0 | 0.00 | 0.00 | 0.00 | 56 | 1011.7 |
| 20260906020106 | 90 | 0 | 0.0 | 0.0 | 0.00 | 0.00 | 0.00 | 53 | 1011.7 |
| 20260906014600 | 91 | 0 | 0.0 | 0.0 | 0.00 | 0.00 | 0.00 | 51 | 1011.4 |
| 20260906013114 | 92 | 0 | 0.0 | 0.0 | 0.00 | 0.00 | 0.00 | 49 | 1011.1 |
| 20260906011602 | 94 | 0 | 0.0 | 0.0 | 0.00 | 0.00 | 0.00 | 44 | 1011.1 |
| 20260906010104 | 96 | 0 | 0.0 | 0.0 | 0.00 | 0.00 | 0.00 | 41 | 1011.1 |
| 20260906004604 | 97 | 0 | 0.0 | 0.0 | 0.00 | 0.00 | 0.00 | 38 | 1011.1 |
| 20260906003104 | 98 | 0 | 0.0 | 0.0 | 0.00 | 0.00 | 0.00 | 37 | 1011.2 |
| 20260906001610 | 99 | 0 | 0.0 | 2.0 | 0.00 | 0.00 | 0.00 | 35 | 1011.2 |
| 20260906000059 | 101 | 114 | 0.0 | 2.0 | 0.00 | 0.00 | 0.00 | 34 | 1011.2 |
| 20260905234604 | 101 | 0 | 0.0 | 2.0 | 0.00 | 0.00 | 0.00 | 34 | 1011.2 |
| 20260905233102 | 101 | 0 | 0.0 | 3.0 | 0.00 | 0.00 | 0.00 | 34 | 1011.0 |
| 20260905231600 | 101 | 66 | 0.0 | 6.0 | 0.00 | 0.00 | 0.00 | 34 | 1010.9 |
| 20260905230106 | 101 | 0 | 0.0 | 8.0 | 0.00 | 0.00 | 0.00 | 34 | 1011.0 |
| 20260905224617 | 101 | 122 | 1.0 | 7.0 | 0.00 | 0.00 | 0.00 | 33 | 1011.0 |
| 20260905223116 | 102 | 150 | 1.0 | 6.0 | 0.00 | 0.00 | 0.00 | 33 | 1010.9 |
| 20260905220105 | 102 | 0 | 2.0 | 7.0 | 0.00 | 0.00 | 0.00 | 32 | 1011.0 |
| 20260905214605 | 103 | 97 | 1.0 | 9.0 | 0.00 | 0.00 | 0.00 | 32 | 1011.2 |
| 20260905213105 | 102 | 175 | 0.0 | 7.0 | 0.00 | 0.00 | 0.00 | 34 | 1011.4 |
| 20260905211605 | 103 | 103 | 2.0 | 9.0 | 0.00 | 0.00 | 0.00 | 33 | 1011.5 |
| 20260905210108 | 103 | 112 | 2.0 | 10.0 | 0.00 | 0.00 | 0.00 | 34 | 1011.7 |
| 20260905204603 | 103 | 109 | 2.0 | 8.0 | 0.00 | 0.00 | 0.00 | 35 | 1011.9 |
| 20260905203100 | 103 | 0 | 1.0 | 8.0 | 0.00 | 0.00 | 0.00 | 34 | 1012.1 |
| 20260905201558 | 103 | 129 | 2.0 | 8.0 | 0.00 | 0.00 | 0.00 | 33 | 1012.4 |
| 20260905200105 | 103 | 124 | 1.0 | 8.0 | 0.00 | 0.00 | 0.00 | 33 | 1012.6 |
| 20260905194602 | 102 | 46 | 3.0 | 10.0 | 0.00 | 0.00 | 0.00 | 35 | 1012.8 |
| 20260905193103 | 102 | 142 | 2.0 | 11.0 | 0.00 | 0.00 | 0.00 | 35 | 1012.9 |
| 20260905191608 | 102 | 50 | 2.0 | 8.0 | 0.00 | 0.00 | 0.00 | 35 | 1013.3 |
| 20260905190105 | 101 | 121 | 1.0 | 9.0 | 0.00 | 0.00 | 0.00 | 37 | 1013.4 |
| 20260905184606 | 103 | 179 | 1.0 | 7.0 | 0.00 | 0.00 | 0.00 | 35 | 1013.6 |
| 20260905183105 | 102 | 252 | 1.0 | 6.0 | 0.00 | 0.00 | 0.00 | 34 | 1013.6 |
| 20260905181559 | 102 | 90 | 1.0 | 11.0 | 0.00 | 0.00 | 0.00 | 35 | 1013.8 |
| 20260905180106 | 102 | 109 | 1.0 | 6.0 | 0.00 | 0.00 | 0.00 | 35 | 1013.9 |
| 20260905174606 | 101 | 280 | 0.0 | 6.0 | 0.00 | 0.00 | 0.00 | 37 | 1014.1 |
| 20260905173130 | 101 | 137 | 1.0 | 6.0 | 0.00 | 0.00 | 0.00 | 38 | 1014.2 |
| 20260905171609 | 100 | 243 | 1.0 | 7.0 | 0.00 | 0.00 | 0.00 | 40 | 1014.4 |
| 20260905170113 | 99 | 0 | 0.0 | 6.0 | 0.00 | 0.00 | 0.00 | 39 | 1014.6 |
| 20260905164607 | 99 | 223 | 0.0 | 8.0 | 0.00 | 0.00 | 0.00 | 41 | 1014.6 |
| 20260905163122 | 99 | 126 | 1.0 | 6.0 | 0.00 | 0.00 | 0.00 | 40 | 1014.7 |
| 20260905161615 | 97 | 0 | 1.0 | 8.0 | 0.00 | 0.00 | 0.00 | 43 | 1014.9 |
| 20260905160106 | 98 | 81 | 1.0 | 5.0 | 0.00 | 0.00 | 0.00 | 43 | 1015.0 |
| 20260905154616 | 96 | 0 | 1.0 | 4.0 | 0.00 | 0.00 | 0.00 | 47 | 1014.9 |
| 20260905153105 | 94 | 0 | 0.0 | 4.0 | 0.00 | 0.00 | 0.00 | 50 | 1014.9 |
| 20260905151603 | 93 | 113 | 1.0 | 4.0 | 0.00 | 0.00 | 0.00 | 52 | 1014.8 |
| 20260905150108 | 92 | 166 | 0.0 | 3.0 | 0.00 | 0.00 | 0.00 | 54 | 1014.7 |
| 20260905144609 | 90 | 122 | 0.0 | 3.0 | 0.00 | 0.00 | 0.00 | 58 | 1014.7 |
| 20260905143107 | 87 | 117 | 0.0 | 3.0 | 0.00 | 0.00 | 0.00 | 61 | 1014.5 |
| 20260905141606 | 86 | 0 | 1.0 | 4.0 | 0.00 | 0.00 | 0.00 | 64 | 1014.6 |
| 20260905140110 | 84 | 0 | 0.0 | 4.0 | 0.00 | 0.00 | 0.00 | 67 | 1014.7 |
| 20260905134602 | 82 | 113 | 0.0 | 2.0 | 0.00 | 0.00 | 0.00 | 70 | 1014.5 |
| 20260905133105 | 80 | 0 | 0.0 | 3.0 | 0.00 | 0.00 | 0.00 | 75 | 1014.4 |
| 20260905131608 | 78 | 0 | 0.0 | 2.0 | 0.00 | 0.00 | 0.00 | 78 | 1014.2 |
| 20260905130104 | 76 | 0 | 0.0 | 0.0 | 0.00 | 0.00 | 0.00 | 82 | 1014.1 |
| 20260905124651 | 74 | 0 | 0.0 | 1.0 | 0.00 | 0.00 | 0.00 | 84 | 1013.8 |
| 20260905123109 | 74 | 0 | 0.0 | 0.0 | 0.00 | 0.00 | 0.00 | 84 | 1013.8 |
| 20260905121602 | 73 | 0 | 0.0 | 0.0 | 0.00 | 0.00 | 0.00 | 84 | 1013.6 |
| 20260905120106 | 74 | 0 | 0.0 | 0.0 | 0.00 | 0.00 | 0.00 | 84 | 1013.6 |
| 20260905114603 | 74 | 0 | 0.0 | 0.0 | 0.00 | 0.00 | 0.00 | 83 | 1013.6 |
| 20260905113057 | 74 | 0 | 0.0 | 0.0 | 0.00 | 0.00 | 0.00 | 83 | 1013.7 |
| 20260905111601 | 74 | 0 | 0.0 | 0.0 | 0.00 | 0.00 | 0.00 | 83 | 1013.7 |
| 20260905110100 | 75 | 0 | 0.0 | 0.0 | 0.00 | 0.00 | 0.00 | 82 | 1013.7 |
| 20260905104613 | 75 | 0 | 0.0 | 0.0 | 0.00 | 0.00 | 0.00 | 81 | 1013.6 |
| 20260905103106 | 75 | 0 | 0.0 | 0.0 | 0.00 | 0.00 | 0.00 | 81 | 1013.5 |
| 20260905101608 | 75 | 0 | 0.0 | 0.0 | 0.00 | 0.00 | 0.00 | 80 | 1013.5 |
| 20260905100124 | 76 | 0 | 0.0 | 0.0 | 0.00 | 0.00 | 0.00 | 79 | 1013.4 |
| 20260905094614 | 76 | 0 | 0.0 | 0.0 | 0.00 | 0.00 | 0.00 | 79 | 1013.4 |
| 20260905093119 | 76 | 0 | 0.0 | 0.0 | 0.00 | 0.00 | 0.00 | 78 | 1013.4 |
| 20260905091612 | 77 | 0 | 0.0 | 0.0 | 0.00 | 0.00 | 0.00 | 77 | 1013.3 |
| 20260905090104 | 77 | 0 | 0.0 | 0.0 | 0.00 | 0.00 | 0.00 | 76 | 1013.4 |
| 20260905084601 | 77 | 0 | 0.0 | 0.0 | 0.00 | 0.00 | 0.00 | 75 | 1013.3 |
| 20260905083114 | 78 | 0 | 0.0 | 0.0 | 0.00 | 0.00 | 0.00 | 73 | 1013.2 |
| 20260905081612 | 78 | 0 | 0.0 | 0.0 | 0.00 | 0.00 | 0.00 | 73 | 1013.1 |
| 20260905080107 | 79 | 0 | 0.0 | 1.0 | 0.00 | 0.00 | 0.00 | 72 | 1013.2 |
| 20260905074601 | 79 | 0 | 0.0 | 3.0 | 0.00 | 0.00 | 0.00 | 72 | 1013.1 |